�������l�o���
Date,Time,MP-1(��Sv/h),MP-2(��Sv/h),MP-3(��Sv/h),MP-4(��Sv/h),MP-5(��Sv/h),MP-6(��Sv/h),MP-7(��Sv/h),MP-8(��Sv/h),����,����(m/s),���J
2022/03/15,00:00,0.597,0.888,0.562,1.099,0.773,0.353,0.617,0.582,�k�k��,0.8,�L
2022/03/15,00:10,0.594,0.884,0.561,1.097,0.775,0.352,0.616,0.581,�k,1.2,�L
2022/03/15,00:20,0.597,0.887,0.562,1.097,0.773,0.352,0.616,0.579,�k�k��,1.4,�L
2022/03/15,00:30,0.594,0.885,0.562,1.097,0.775,0.354,0.616,0.581,�k�k��,0.9,�L
2022/03/15,00:40,0.597,0.885,0.561,1.097,0.774,0.353,0.616,0.580,���k��,1.5,�L
2022/03/15,00:50,0.596,0.885,0.562,1.096,0.774,0.354,0.615,0.581,�k�k��,0.9,�L
2022/03/15,01:00,0.594,0.884,0.564,1.095,0.773,0.351,0.615,0.580,�k,0.6,�L
2022/03/15,01:10,0.596,0.884,0.562,1.094,0.772,0.352,0.614,0.581,���k��,1.2,�L
2022/03/15,01:20,0.594,0.883,0.560,1.095,0.771,0.352,0.617,0.580,�k�k��,2.0,�L
2022/03/15,01:30,0.594,0.886,0.560,1.096,0.772,0.352,0.614,0.581,�k��,2.8,��
2022/03/15,01:40,0.592,0.884,0.561,1.097,0.773,0.352,0.617,0.580,�k�k��,2.6,��
2022/03/15,01:50,0.594,0.882,0.561,1.093,0.772,0.353,0.614,0.580,�k�k��,2.2,��
2022/03/15,02:00,0.594,0.883,0.560,1.094,0.772,0.352,0.616,0.581,�k�k��,2.8,�L
2022/03/15,02:10,0.593,0.884,0.561,1.096,0.771,0.352,0.616,0.581,�k�k��,3.2,�L
2022/03/15,02:20,0.595,0.884,0.562,1.095,0.772,0.352,0.615,0.581,�k�k��,3.5,�L
2022/03/15,02:30,0.594,0.885,0.562,1.095,0.770,0.352,0.615,0.583,�k�k��,3.8,�L
2022/03/15,02:40,0.595,0.882,0.560,1.094,0.770,0.351,0.615,0.579,�k�k��,3.8,�L
2022/03/15,02:50,0.594,0.881,0.562,1.094,0.772,0.353,0.616,0.581,�k�k��,3.6,�L
2022/03/15,03:00,0.595,0.882,0.560,1.094,0.771,0.354,0.616,0.580,�k�k��,4.8,�L
2022/03/15,03:10,0.594,0.881,0.562,1.093,0.770,0.354,0.616,0.580,�k�k��,4.2,�L
2022/03/15,03:20,0.594,0.881,0.563,1.094,0.770,0.354,0.615,0.581,�k�k��,3.5,�L
2022/03/15,03:30,0.594,0.881,0.560,1.094,0.768,0.352,0.615,0.580,�k�k��,3.7,�L
2022/03/15,03:40,0.593,0.881,0.562,1.094,0.770,0.353,0.614,0.580,�k�k��,3.4,�L
2022/03/15,03:50,0.593,0.879,0.561,1.091,0.770,0.353,0.616,0.581,�k��,3.3,�L
2022/03/15,04:00,0.592,0.876,0.559,1.092,0.768,0.354,0.614,0.581,�k�k��,2.0,�L
2022/03/15,04:10,0.591,0.876,0.560,1.089,0.765,0.356,0.614,0.578,�k��,3.0,�L
2022/03/15,04:20,0.592,0.874,0.560,1.090,0.766,0.354,0.614,0.578,�k�k��,2.6,�L
2022/03/15,04:30,0.592,0.872,0.561,1.086,0.763,0.355,0.613,0.579,�k��,3.4,�L
2022/03/15,04:40,0.590,0.871,0.560,1.087,0.763,0.354,0.612,0.579,�k�k��,3.7,�L
2022/03/15,04:50,0.591,0.874,0.558,1.084,0.761,0.354,0.612,0.578,�k��,4.1,�L
2022/03/15,05:00,0.590,0.869,0.558,1.082,0.763,0.353,0.613,0.577,�k��,4.7,�L
2022/03/15,05:10,0.588,0.869,0.557,1.083,0.761,0.352,0.612,0.579,�k��,5.2,�L
2022/03/15,05:20,0.589,0.869,0.556,1.082,0.761,0.354,0.614,0.578,�k��,5.9,�L
2022/03/15,05:30,0.588,0.867,0.558,1.081,0.759,0.353,0.612,0.577,�k��,6.5,�L
2022/03/15,05:40,0.588,0.867,0.557,1.080,0.759,0.352,0.611,0.578,�k��,6.4,�L
2022/03/15,05:50,0.587,0.867,0.555,1.077,0.759,0.351,0.611,0.577,�k��,7.4,�L
2022/03/15,06:00,0.587,0.865,0.556,1.078,0.758,0.352,0.613,0.577,�k�k��,8.2,�L
2022/03/15,06:10,0.586,0.863,0.554,1.076,0.757,0.352,0.612,0.579,�k�k��,6.8,�L
2022/03/15,06:20,0.585,0.862,0.555,1.076,0.757,0.350,0.612,0.577,�k��,5.4,�L
2022/03/15,06:30,0.585,0.863,0.555,1.076,0.756,0.352,0.611,0.576,�k��,5.8,�L
2022/03/15,06:40,0.586,0.860,0.554,1.070,0.755,0.352,0.610,0.577,�k�k��,6.3,�L
2022/03/15,06:50,0.586,0.856,0.554,1.067,0.753,0.353,0.610,0.576,�k�k��,5.2,�L
2022/03/15,07:00,0.585,0.856,0.555,1.062,0.750,0.353,0.608,0.574,�k�k��,5.9,�L
2022/03/15,07:10,0.585,0.853,0.555,1.059,0.749,0.352,0.610,0.572,�k�k��,8.0,�L
2022/03/15,07:20,0.584,0.854,0.554,1.057,0.751,0.353,0.609,0.575,�k�k��,6.6,�L
2022/03/15,07:30,0.584,0.854,0.555,1.057,0.749,0.353,0.609,0.574,�k�k��,5.7,�L
2022/03/15,07:40,0.582,0.854,0.554,1.057,0.748,0.352,0.608,0.573,�k�k��,5.6,�L
2022/03/15,07:50,0.583,0.852,0.553,1.053,0.749,0.351,0.608,0.573,�k,6.5,�L
2022/03/15,08:00,0.582,0.853,0.552,1.055,0.748,0.351,0.608,0.574,�k,6.1,�L
2022/03/15,08:10,0.580,0.851,0.551,1.055,0.747,0.350,0.608,0.574,�k,6.0,�L
2022/03/15,08:20,0.582,0.854,0.552,1.054,0.746,0.350,0.608,0.573,�k�k��,5.9,��
2022/03/15,08:30,0.581,0.848,0.550,1.054,0.747,0.349,0.608,0.574,�k�k��,5.9,��
2022/03/15,08:40,0.579,0.849,0.549,1.053,0.747,0.346,0.610,0.574,�k�k��,5.2,��
2022/03/15,08:50,0.579,0.846,0.547,1.053,0.746,0.348,0.608,0.572,�k�k��,5.2,��
2022/03/15,09:00,0.578,0.847,0.548,1.052,0.743,0.348,0.608,0.573,�k,4.0,��
2022/03/15,09:10,0.577,0.847,0.546,1.053,0.744,0.346,0.609,0.572,�k,3.1,��
2022/03/15,09:20,0.577,0.847,0.547,1.051,0.745,0.346,0.608,0.571,�k,3.8,��
2022/03/15,09:30,0.579,0.847,0.547,1.052,0.745,0.346,0.607,0.573,�k�k��,5.1,��
2022/03/15,09:40,0.576,0.848,0.548,1.051,0.742,0.345,0.606,0.572,�k,3.4,��
2022/03/15,09:50,0.577,0.845,0.549,1.050,0.743,0.346,0.609,0.572,�k,2.5,��
2022/03/15,10:00,0.577,0.848,0.550,1.052,0.745,0.346,0.608,0.573,�k�k��,2.8,��
2022/03/15,10:10,0.578,0.847,0.548,1.052,0.746,0.347,0.608,0.573,�k,2.3,��
2022/03/15,10:20,0.577,0.847,0.545,1.054,0.748,0.347,0.607,0.572,�k,2.2,��
2022/03/15,10:30,0.579,0.847,0.548,1.053,0.748,0.349,0.608,0.572,�k,2.0,��
2022/03/15,10:40,0.577,0.850,0.550,1.053,0.746,0.348,0.608,0.573,�k,1.9,��
2022/03/15,10:50,0.580,0.848,0.549,1.053,0.748,0.347,0.607,0.572,�k,2.0,��
2022/03/15,11:00,0.579,0.850,0.551,1.054,0.749,0.347,0.607,0.572,�k�k��,2.0,��
2022/03/15,11:10,0.577,0.850,0.549,1.055,0.748,0.342,0.608,0.573,�k�k��,1.5,��
2022/03/15,11:20,0.581,0.850,0.549,1.051,0.749,0.339,0.606,0.572,�k��,1.7,��
2022/03/15,11:30,0.579,0.852,0.550,1.054,0.748,0.337,0.607,0.572,�k�k��,3.2,��
2022/03/15,11:40,0.579,0.850,0.549,1.055,0.749,0.343,0.608,0.571,�k,2.9,��
2022/03/15,11:50,0.578,0.851,0.551,1.052,0.749,0.346,0.608,0.571,�k�k��,3.2,��
2022/03/15,12:00,0.578,0.853,0.550,1.054,0.749,0.347,0.608,0.572,�k�k��,3.7,��
2022/03/15,12:10,0.580,0.853,0.552,1.055,0.749,0.350,0.608,0.573,���k��,10.8,��
2022/03/15,12:20,0.579,0.853,0.553,1.058,0.750,0.350,0.610,0.574,���k��,8.6,��
2022/03/15,12:30,0.583,0.856,0.550,1.057,0.750,0.350,0.611,0.574,���k��,10.6,��
2022/03/15,12:40,0.583,0.856,0.546,1.056,0.753,0.350,0.610,0.574,��,9.6,��
2022/03/15,12:50,0.582,0.857,0.552,1.057,0.752,0.351,0.612,0.574,��,9.1,��
2022/03/15,13:00,0.583,0.856,0.555,1.057,0.753,0.349,0.612,0.574,��,11.7,��
2022/03/15,13:10,0.583,0.857,0.555,1.057,0.752,0.350,0.612,0.576,���k��,14.9,��
2022/03/15,13:20,0.584,0.857,0.554,1.060,0.754,0.349,0.611,0.574,��,11.3,��
2022/03/15,13:30,0.585,0.856,0.555,1.059,0.756,0.347,0.613,0.573,��,16.3,��
2022/03/15,13:40,0.585,0.857,0.555,1.062,0.755,0.349,0.613,0.574,��,11.1,��
2022/03/15,13:50,0.583,0.857,0.556,1.060,0.756,0.349,0.611,0.575,���쐼,16.6,��
2022/03/15,14:00,0.584,0.856,0.555,1.062,0.755,0.349,0.612,0.575,��,17.1,��
2022/03/15,14:10,0.584,0.859,0.555,1.063,0.756,0.349,0.613,0.576,���쐼,11.4,��
2022/03/15,14:20,0.585,0.858,0.557,1.063,0.755,0.350,0.612,0.575,-,CALM,��
2022/03/15,14:30,0.585,0.861,0.556,1.063,0.755,0.349,0.610,0.576,���쐼,13.5,��
2022/03/15,14:40,0.586,0.859,0.556,1.064,0.758,0.349,0.611,0.576,��,12.5,��
2022/03/15,14:50,0.584,0.861,0.555,1.065,0.756,0.345,0.612,0.574,��,11.0,��
2022/03/15,15:00,0.587,0.861,0.556,1.064,0.759,0.342,0.612,0.576,��,11.4,��
2022/03/15,15:10,0.585,0.862,0.556,1.066,0.757,0.348,0.611,0.577,���k��,11.6,��
2022/03/15,15:20,0.585,0.863,0.555,1.066,0.758,0.348,0.610,0.576,���k��,13.5,��
2022/03/15,15:30,0.586,0.861,0.557,1.066,0.757,0.348,0.611,0.577,���k��,14.6,��
2022/03/15,15:40,0.585,0.863,0.556,1.065,0.756,0.350,0.612,0.575,���k��,13.5,��
2022/03/15,15:50,0.585,0.861,0.556,1.066,0.757,0.350,0.611,0.577,���k��,14.7,��
2022/03/15,16:00,0.586,0.864,0.556,1.066,0.759,0.350,0.612,0.577,��,15.8,��
2022/03/15,16:10,0.587,0.862,0.557,1.068,0.758,0.350,0.611,0.577,��,13.3,��
2022/03/15,16:20,0.587,0.863,0.558,1.066,0.756,0.351,0.611,0.577,��,12.1,��
2022/03/15,16:30,0.586,0.863,0.555,1.067,0.758,0.349,0.612,0.577,���k��,13.0,��
2022/03/15,16:40,0.585,0.865,0.556,1.068,0.758,0.351,0.611,0.577,���k��,8.8,��
2022/03/15,16:50,0.585,0.864,0.556,1.065,0.759,0.349,0.611,0.576,���k��,13.5,��
2022/03/15,17:00,0.585,0.864,0.556,1.067,0.758,0.350,0.609,0.578,���k��,13.8,��
2022/03/15,17:10,0.585,0.863,0.556,1.069,0.758,0.352,0.610,0.578,��,11.1,��
2022/03/15,17:20,0.585,0.864,0.556,1.068,0.759,0.349,0.609,0.578,���k��,13.3,��
2022/03/15,17:30,0.586,0.865,0.555,1.068,0.759,0.351,0.609,0.579,���k��,14.2,��
2022/03/15,17:40,0.584,0.864,0.557,1.068,0.759,0.349,0.612,0.580,��,9.3,��
2022/03/15,17:50,0.587,0.866,0.557,1.068,0.758,0.352,0.610,0.580,���k��,11.7,��
2022/03/15,18:00,0.586,0.868,0.556,1.067,0.759,0.350,0.609,0.579,���k��,7.4,��
2022/03/15,18:10,0.586,0.866,0.559,1.068,0.760,0.349,0.609,0.579,�k��,9.8,��
2022/03/15,18:20,0.586,0.869,0.557,1.069,0.760,0.351,0.609,0.578,�k��,8.3,��
2022/03/15,18:30,0.586,0.864,0.557,1.069,0.759,0.350,0.611,0.579,�k��,11.6,��
2022/03/15,18:40,0.585,0.869,0.558,1.069,0.761,0.350,0.611,0.578,�k��,7.4,��
2022/03/15,18:50,0.586,0.866,0.558,1.067,0.760,0.351,0.611,0.579,�k�k��,4.5,��
2022/03/15,19:00,0.586,0.866,0.558,1.069,0.763,0.349,0.612,0.578,�k�k��,3.4,��
2022/03/15,19:10,0.586,0.866,0.558,1.070,0.762,0.349,0.612,0.578,�k,4.5,��
2022/03/15,19:20,0.584,0.866,0.557,1.069,0.759,0.350,0.611,0.578,�k,4.1,��
2022/03/15,19:30,0.585,0.868,0.557,1.068,0.760,0.349,0.613,0.576,�k�k��,1.5,��
2022/03/15,19:40,0.586,0.867,0.556,1.069,0.761,0.350,0.614,0.578,�k��,4.7,��
2022/03/15,19:50,0.585,0.866,0.556,1.068,0.760,0.350,0.613,0.579,�k��,2.0,��
2022/03/15,20:00,0.587,0.866,0.556,1.068,0.760,0.349,0.612,0.577,�k�k��,1.9,��
2022/03/15,20:10,0.585,0.868,0.557,1.066,0.760,0.350,0.613,0.577,�k��,2.5,��
2022/03/15,20:20,0.586,0.867,0.557,1.068,0.760,0.349,0.613,0.576,���k��,1.4,��
2022/03/15,20:30,0.585,0.866,0.557,1.067,0.762,0.348,0.613,0.577,���k��,2.9,��
2022/03/15,20:40,0.585,0.867,0.557,1.068,0.760,0.350,0.613,0.577,�k��,3.7,��
2022/03/15,20:50,0.586,0.867,0.557,1.069,0.760,0.349,0.612,0.576,�k�k��,4.7,��
2022/03/15,21:00,0.584,0.865,0.557,1.068,0.761,0.350,0.610,0.576,�k��,4.7,��
2022/03/15,21:10,0.587,0.866,0.557,1.070,0.761,0.349,0.611,0.579,�k��,4.4,��
2022/03/15,21:20,0.585,0.868,0.558,1.068,0.762,0.348,0.610,0.577,�k�k��,1.7,��
2022/03/15,21:30,0.585,0.867,0.556,1.068,0.760,0.349,0.612,0.576,���k��,1.1,��
2022/03/15,21:40,0.584,0.866,0.557,1.067,0.760,0.349,0.613,0.578,��,2.3,��
2022/03/15,21:50,0.586,0.867,0.555,1.070,0.760,0.348,0.610,0.576,�k�k��,2.0,��
2022/03/15,22:00,0.587,0.864,0.557,1.069,0.760,0.349,0.612,0.576,�k�k��,1.2,��
2022/03/15,22:10,0.585,0.864,0.556,1.068,0.760,0.350,0.612,0.577,���k��,2.0,��
2022/03/15,22:20,0.584,0.863,0.556,1.068,0.763,0.349,0.612,0.577,��,4.4,��
2022/03/15,22:30,0.585,0.866,0.557,1.066,0.760,0.348,0.612,0.577,��,4.1,��
2022/03/15,22:40,0.585,0.868,0.556,1.068,0.761,0.348,0.611,0.577,���k��,3.7,��
2022/03/15,22:50,0.583,0.864,0.556,1.067,0.761,0.349,0.612,0.575,��,2.3,��
2022/03/15,23:00,0.586,0.866,0.556,1.067,0.759,0.349,0.612,0.577,���k��,1.7,��
2022/03/15,23:10,0.585,0.865,0.556,1.068,0.761,0.350,0.611,0.578,�k��,2.6,��
2022/03/15,23:20,0.586,0.867,0.555,1.067,0.762,0.348,0.611,0.579,���k��,2.0,��
2022/03/15,23:30,0.584,0.865,0.557,1.068,0.762,0.349,0.611,0.577,���k��,2.0,��
2022/03/15,23:40,0.584,0.864,0.557,1.069,0.761,0.350,0.611,0.577,�k��,0.6,��
2022/03/15,23:50,0.585,0.867,0.558,1.068,0.760,0.348,0.611,0.577,���k��,2.2,��
